CW4588 Weather Reports


Display with metric or nautical units.
time (UTC)temp
F
wind
direction
speed
MPH
gust
MPH
rain 1hr
in
rain 24hr
in
rain mn
in
humidity
%
barometer
mb
20260906034546 44 314 0.0 0.0 0.00 0.00 0.00 99 1001.6
20260906034028 44 342 0.0 0.0 0.00 0.00 0.00 99 1001.4
20260906033533 44 325 0.0 0.0 0.00 0.00 0.00 99 1001.4
20260906033030 44 315 0.0 0.0 0.00 0.00 0.00 99 1001.4
20260906032525 44 312 0.0 0.0 0.00 0.00 0.00 99 1001.4
20260906032031 44 301 0.0 0.0 0.00 0.00 0.00 99 1001.4
20260906031525 44 291 0.0 0.0 0.00 0.00 0.00 99 1001.4
20260906031027 43 314 0.0 0.0 0.00 0.00 0.00 99 1001.3
20260906030534 43 321 0.0 0.0 0.00 0.00 0.00 99 1001.3
20260906030050 43 274 0.0 0.0 0.00 0.00 0.00 99 1001.4
20260906025530 44 273 0.0 0.0 0.00 0.00 0.00 99 1001.2
20260906025046 44 273 0.0 0.0 0.00 0.00 0.00 99 1001.2
20260906024532 44 273 0.0 0.0 0.00 0.00 0.00 99 1001.2
20260906024043 44 300 0.0 0.0 0.00 0.00 0.00 99 1001.0
20260906023525 44 335 0.0 0.0 0.00 0.00 0.00 99 1001.0
20260906023035 44 336 0.0 0.0 0.00 0.00 0.00 99 1001.0
20260906022540 45 307 0.0 0.0 0.00 0.00 0.00 99 1001.0
20260906022027 45 324 0.0 0.0 0.00 0.00 0.00 99 1001.0
20260906021538 45 308 0.0 0.0 0.00 0.00 0.00 99 1001.0
20260906021021 45 317 0.0 0.0 0.00 0.00 0.00 100 1000.9
20260906020527 45 326 0.0 0.0 0.00 0.00 0.00 100 1000.9
20260906020105 46 321 0.0 0.0 0.00 0.00 0.00 100 1000.9
20260906015528 46 334 0.0 0.0 0.00 0.00 0.00 100 1000.8
20260906015105 46 342 0.0 0.0 0.00 0.00 0.00 100 1000.8
20260906014540 46 329 0.0 0.0 0.00 0.00 0.00 100 1000.8
20260906014045 46 342 0.0 0.0 0.00 0.00 0.00 100 1000.6
20260906013527 46 334 0.0 0.0 0.00 0.00 0.00 100 1000.6
20260906013028 45 293 0.0 0.0 0.00 0.00 0.00 100 1000.6
20260906012558 45 341 0.0 0.0 0.00 0.00 0.00 99 1000.4
20260906012043 45 308 0.0 0.0 0.00 0.00 0.00 99 1000.4
20260906011534 45 305 0.0 0.0 0.00 0.00 0.00 99 1000.4
20260906011039 45 290 0.0 0.0 0.00 0.00 0.00 99 1000.3
20260906010525 45 294 0.0 0.0 0.00 0.00 0.00 99 1000.3
20260906010044 45 338 0.0 0.0 0.00 0.00 0.00 99 1000.3
20260906005549 45 342 0.0 0.0 0.00 0.00 0.00 99 1000.3
20260906005031 44 321 0.0 0.0 0.00 0.00 0.00 98 1000.3
20260906004526 44 310 0.0 0.0 0.00 0.00 0.00 97 1000.3
20260906004034 44 310 0.0 0.0 0.00 0.00 0.00 97 1000.1
20260906003530 44 300 0.0 0.0 0.00 0.00 0.00 97 1000.1
20260906003037 43 239 0.0 0.0 0.00 0.00 0.00 96 1000.1
20260906002537 43 259 0.0 0.0 0.00 0.00 0.00 96 1000.0
20260906002046 43 269 0.0 0.0 0.00 0.00 0.00 95 1000.0
20260906001531 44 260 0.0 0.0 0.00 0.00 0.00 95 1000.0
20260906001030 44 256 0.0 0.0 0.00 0.00 0.00 95 1000.0
20260906000540 44 298 0.0 0.0 0.00 0.00 0.00 95 1000.0
20260906000022 44 298 0.0 0.0 0.00 0.00 0.00 95 1000.0
20260905235524 45 298 0.0 0.0 0.00 0.00 0.00 95 1000.0
20260905235027 45 298 0.0 0.0 0.00 0.00 0.00 95 1000.0
20260905234536 45 298 0.0 0.0 0.00 0.00 0.00 95 1000.0
20260905234037 46 298 0.0 0.0 0.00 0.00 0.00 95 999.9
20260905233520 46 298 0.0 0.0 0.00 0.00 0.00 96 999.9
20260905233026 46 298 0.0 0.0 0.00 0.00 0.00 96 999.9
20260905232527 46 298 0.0 0.0 0.00 0.00 0.00 96 999.8
20260905232040 47 298 0.0 0.0 0.00 0.00 0.00 96 999.8
20260905231535 47 298 0.0 0.0 0.00 0.00 0.00 96 999.8
20260905231020 47 298 0.0 0.0 0.00 0.00 0.00 96 999.8
20260905230558 47 298 0.0 0.0 0.00 0.00 0.00 96 999.8
20260905230037 47 298 0.0 0.0 0.00 0.00 0.00 96 999.8
20260905225545 47 284 0.0 0.0 0.00 0.00 0.00 96 999.8
20260905225048 47 284 0.0 0.0 0.00 0.00 0.00 96 999.8
20260905224537 47 326 0.0 0.0 0.00 0.00 0.00 96 999.8
20260905224035 47 311 0.0 0.0 0.00 0.00 0.00 96 999.6
20260905223537 47 311 0.0 0.0 0.00 0.00 0.00 96 999.6
20260905223038 47 311 0.0 0.0 0.00 0.00 0.00 95 999.6
20260905222550 47 311 0.0 0.0 0.00 0.00 0.00 95 999.5
20260905222034 47 311 0.0 0.0 0.00 0.00 0.00 95 999.5
20260905221551 48 311 0.0 0.0 0.00 0.00 0.00 95 999.5
20260905221032 48 300 0.0 0.0 0.00 0.00 0.00 95 999.4
20260905220537 48 314 0.0 0.0 0.00 0.00 0.00 95 999.4
20260905220033 48 339 0.0 0.0 0.00 0.00 0.00 95 999.4
20260905215537 48 348 0.0 0.0 0.00 0.00 0.00 95 999.3
20260905215025 48 328 0.0 0.0 0.00 0.00 0.00 95 999.3
20260905214537 48 342 0.0 0.0 0.00 0.00 0.00 95 999.3
20260905214022 48 342 1.0 0.0 0.00 0.00 0.00 95 999.2
20260905213529 48 10 2.0 0.0 0.00 0.00 0.00 95 999.2
20260905213045 48 339 2.0 0.0 0.00 0.00 0.00 95 999.2
20260905212524 48 332 1.0 0.0 0.00 0.00 0.00 95 999.2
20260905212021 48 30 0.0 0.0 0.00 0.00 0.00 94 999.2
20260905211533 48 355 1.0 0.0 0.00 0.00 0.00 94 999.2
20260905211033 48 336 1.0 0.0 0.00 0.00 0.00 94 998.9
20260905210537 48 342 1.0 0.0 0.00 0.00 0.00 94 998.9
20260905210053 48 348 1.0 0.0 0.00 0.00 0.00 94 998.9
20260905205533 48 332 2.0 0.0 0.00 0.00 0.02 94 998.8
20260905205038 48 14 3.0 0.0 0.00 0.00 0.02 94 998.8
20260905204521 48 5 2.0 0.0 0.00 0.00 0.02 94 998.8
20260905204059 48 26 2.0 0.0 0.00 0.00 0.02 94 998.7
20260905203522 48 40 2.0 0.0 0.00 0.00 0.02 94 998.7
20260905203032 48 346 1.0 0.0 0.00 0.00 0.02 94 998.7
20260905202535 48 335 0.0 0.0 0.00 0.00 0.02 94 998.6
20260905202021 48 342 0.0 0.0 0.00 0.00 0.02 94 998.6
20260905201538 47 328 0.0 0.0 0.00 0.00 0.02 94 998.6
20260905201023 47 335 0.0 0.0 0.00 0.00 0.02 94 998.4
20260905200525 47 311 0.0 0.0 0.00 0.00 0.02 94 998.4
20260905200046 47 336 0.0 0.0 0.00 0.00 0.02 93 998.4
20260905195529 47 336 0.0 0.0 0.00 0.00 0.02 93 998.3
20260905195037 47 325 0.0 0.0 0.00 0.00 0.02 93 998.3
20260905194557 47 314 0.0 0.0 0.00 0.00 0.02 92 998.3
20260905194039 48 353 0.0 0.0 0.00 0.00 0.02 92 998.2
20260905193524 48 334 1.0 0.0 0.00 0.00 0.02 92 998.2
20260905193104 48 305 1.0 0.0 0.00 0.00 0.02 92 998.2
20260905192523 48 338 0.0 0.0 0.00 0.00 0.02 92 998.1
20260905192030 48 318 1.0 0.0 0.00 0.00 0.02 92 998.1
20260905191536 48 342 1.0 0.0 0.00 0.00 0.02 92 998.1
20260905191031 48 267 1.0 0.0 0.00 0.00 0.02 91 998.1
20260905190536 48 336 1.0 0.0 0.00 0.00 0.02 91 998.1
20260905190053 49 334 1.0 0.0 0.00 0.00 0.02 91 998.1
20260905185558 49 341 1.0 0.0 0.00 0.00 0.02 91 997.8
20260905185024 49 301 0.0 0.0 0.00 0.00 0.02 91 997.8
20260905184523 49 342 0.0 0.0 0.00 0.00 0.02 91 997.8
20260905184036 49 349 0.0 0.0 0.00 0.00 0.02 91 997.8
20260905183519 49 342 1.0 0.0 0.00 0.00 0.02 91 997.8
20260905183027 49 356 2.0 0.0 0.00 0.00 0.02 91 997.8
20260905182543 49 342 2.0 0.0 0.00 0.00 0.02 90 997.7
20260905182031 49 335 2.0 0.0 0.00 0.00 0.02 90 997.7
20260905181528 49 338 1.0 0.0 0.00 0.00 0.02 90 997.7
20260905181034 49 9 1.0 0.0 0.00 0.00 0.02 89 997.7
20260905180520 49 360 2.0 0.0 0.00 0.00 0.02 89 997.7
20260905180032 49 349 2.0 0.0 0.00 0.00 0.02 89 997.6
20260905175559 49 350 2.0 0.0 0.00 0.00 0.02 89 997.5
20260905175022 49 310 2.0 0.0 0.00 0.00 0.02 89 997.5
20260905174539 49 324 1.0 0.0 0.00 0.00 0.02 89 997.5
20260905174040 49 359 2.0 0.0 0.00 0.00 0.02 89 997.2
20260905173523 49 308 2.0 0.0 0.00 0.00 0.02 88 997.2
20260905173037 49 341 2.0 0.0 0.00 0.00 0.02 88 997.2
20260905172520 49 342 2.0 0.0 0.00 0.00 0.02 88 997.1
20260905172026 50 355 2.0 0.0 0.00 0.00 0.02 88 997.2
20260905171545 50 355 3.0 0.0 0.00 0.00 0.02 88 997.2
20260905171027 50 332 2.0 0.0 0.00 0.00 0.02 88 996.9
20260905170535 50 349 2.0 0.0 0.00 0.00 0.02 88 996.9
20260905170026 50 339 1.0 0.0 0.00 0.00 0.02 87 996.9
20260905165533 50 342 2.0 0.0 0.00 0.00 0.02 87 996.7
20260905165048 50 342 1.0 0.0 0.00 0.00 0.02 87 996.7
20260905164534 50 44 3.0 0.0 0.00 0.00 0.02 86 996.7
20260905164036 50 342 6.0 0.0 0.00 0.00 0.02 86 996.6
20260905163522 51 358 5.0 0.0 0.00 0.00 0.02 86 996.6
20260905163039 51 19 3.0 0.0 0.00 0.00 0.02 87 996.6
20260905162521 51 355 4.0 0.0 0.00 0.00 0.02 87 996.5
20260905162056 51 7 6.0 0.0 0.00 0.00 0.02 87 996.5
20260905161537 51 342 5.0 0.0 0.00 0.00 0.02 87 996.5
20260905161023 51 353 3.0 0.0 0.00 0.00 0.02 88 996.3
20260905160527 51 6 3.0 0.0 0.00 0.00 0.02 88 996.3
20260905160026 51 353 3.0 0.0 0.00 0.00 0.02 88 996.2
20260905155530 52 329 4.0 0.0 0.00 0.00 0.02 87 996.1
20260905155037 52 342 4.0 0.0 0.00 0.00 0.02 86 996.1
20260905154552 52 342 5.0 0.0 0.00 0.00 0.02 85 996.1
20260905154033 53 342 6.0 0.0 0.00 0.00 0.02 84 995.9
20260905153523 53 342 5.0 0.0 0.00 0.00 0.02 83 995.9
20260905153027 53 334 6.0 0.0 0.00 0.00 0.02 80 995.9
20260905152539 53 13 6.0 0.0 0.00 0.00 0.02 79 995.7
20260905152025 53 23 5.0 0.0 0.00 0.00 0.02 80 995.7
20260905151558 53 302 4.0 0.0 0.00 0.00 0.02 80 995.7
20260905151020 53 342 5.0 0.0 0.00 0.00 0.02 80 995.6
20260905150520 53 33 6.0 0.0 0.00 0.00 0.02 81 995.6
20260905150028 53 341 5.0 0.0 0.00 0.00 0.02 81 995.6
20260905145524 54 345 5.0 0.0 0.00 0.00 0.02 81 995.4
20260905145030 54 34 6.0 0.0 0.00 0.00 0.02 81 995.4
20260905144548 54 342 6.0 0.0 0.00 0.00 0.02 82 995.4
20260905144031 54 360 6.0 0.0 0.00 0.00 0.02 82 995.2
20260905143553 54 339 5.0 0.0 0.00 0.00 0.02 82 995.2
20260905143036 54 334 5.0 0.0 0.00 0.00 0.02 82 995.2
20260905142538 54 339 5.0 0.0 0.00 0.00 0.02 82 995.1
20260905142019 54 98 5.0 0.0 0.00 0.00 0.02 82 995.1
20260905141529 54 342 5.0 0.0 0.00 0.00 0.02 82 995.1
20260905141055 54 19 6.0 0.0 0.00 0.00 0.02 82 995.0
20260905140527 54 13 6.0 0.0 0.00 0.00 0.02 82 995.0
20260905140058 54 16 5.0 0.0 0.00 0.00 0.02 81 995.0
20260905135548 54 294 6.0 0.0 0.00 0.00 0.02 80 994.7
20260905135027 54 339 6.0 0.0 0.00 0.00 0.02 80 994.7
20260905134543 55 343 6.0 0.0 0.00 0.00 0.02 79 994.7
20260905134021 55 9 6.0 0.0 0.00 0.00 0.02 77 994.5
20260905133525 55 22 6.0 0.0 0.00 0.00 0.02 80 994.5
20260905133043 55 13 6.0 0.0 0.00 0.00 0.02 79 994.5
20260905132528 55 24 6.0 0.0 0.00 0.00 0.02 79 994.5
20260905132028 55 356 6.0 0.0 0.00 0.00 0.02 80 994.5
20260905131547 55 342 5.0 0.0 0.00 0.00 0.02 81 994.5
20260905131031 55 307 5.0 0.0 0.00 0.00 0.02 82 994.3
20260905130535 55 328 4.0 0.0 0.00 0.00 0.02 82 994.3
20260905130048 55 41 4.0 0.0 0.00 0.00 0.02 83 994.3
20260905125529 55 342 6.0 0.0 0.00 0.00 0.02 82 994.0
20260905125036 56 22 6.0 0.0 0.00 0.00 0.02 80 994.1
20260905124550 57 16 4.0 0.0 0.00 0.00 0.02 79 994.1
20260905124054 57 22 3.0 0.0 0.00 0.00 0.02 78 993.9
20260905123532 56 356 4.0 0.0 0.00 0.00 0.02 81 993.9
20260905123038 56 342 5.0 0.0 0.00 0.00 0.02 80 993.9
20260905122520 57 342 6.0 0.0 0.00 0.00 0.02 79 993.6
20260905122036 57 335 6.0 0.0 0.00 0.00 0.02 79 993.6
20260905121521 58 47 6.0 0.0 0.00 0.00 0.02 79 993.6
20260905121027 58 13 4.0 0.0 0.00 0.00 0.02 80 993.5
20260905120527 57 37 3.0 0.0 0.00 0.00 0.02 81 993.5
20260905120023 57 356 4.0 0.0 0.00 0.00 0.02 80 993.5
20260905115523 58 339 3.0 0.0 0.00 0.00 0.02 80 993.4
20260905115043 58 322 4.0 0.0 0.00 0.00 0.02 80 993.4
20260905114525 57 20 3.0 0.0 0.00 0.00 0.02 82 993.4
20260905114027 57 334 3.0 0.0 0.00 0.00 0.02 81 993.3
20260905113531 57 342 4.0 0.0 0.00 0.00 0.02 80 993.3
20260905113049 57 359 5.0 0.0 0.00 0.00 0.02 80 993.3
20260905112529 58 3 4.0 0.0 0.00 0.00 0.02 81 993.0
20260905112056 58 336 3.0 0.0 0.00 0.00 0.02 82 993.0
20260905111529 58 16 3.0 0.0 0.00 0.00 0.02 85 993.0
20260905111055 58 23 4.0 0.0 0.00 0.00 0.02 82 992.9
20260905110543 58 19 4.0 0.0 0.00 0.00 0.02 82 992.9
20260905110024 59 27 4.0 0.0 0.00 0.00 0.02 81 992.9
20260905105525 58 36 4.0 0.0 0.00 0.00 0.01 80 992.8
20260905105044 58 14 4.0 0.0 0.00 0.00 0.01 81 992.8
20260905104559 57 26 3.0 0.0 0.00 0.00 0.01 82 992.8
20260905104022 57 26 2.0 0.0 0.00 0.00 0.01 83 992.7
20260905103527 57 29 6.0 0.0 0.00 0.00 0.01 83 992.7
20260905103032 57 3 7.0 0.0 0.00 0.00 0.01 82 992.7
20260905102543 58 24 6.0 0.0 0.00 0.00 0.01 83 992.5
20260905102024 58 13 5.0 0.0 0.00 0.00 0.01 82 992.5
20260905101537 58 352 6.0 0.0 0.00 0.00 0.01 80 992.5
20260905101036 58 24 7.0 0.0 0.00 0.00 0.01 83 992.4
20260905100551 58 27 8.0 0.0 0.00 0.00 0.01 83 992.4
20260905100029 57 10 8.0 0.0 0.00 0.00 0.01 83 992.4
20260905095540 57 10 8.0 0.0 0.00 0.00 0.01 87 992.2
20260905095039 56 23 8.0 0.0 0.00 0.00 0.01 87 992.1
20260905094544 56 332 7.0 0.0 0.00 0.00 0.01 88 992.1
20260905094035 56 17 5.0 0.0 0.00 0.00 0.01 90 992.0
20260905093536 56 341 3.0 0.0 0.00 0.00 0.01 92 992.0
20260905093053 55 355 4.0 0.0 0.00 0.00 0.01 92 992.0
20260905092536 55 29 3.0 0.0 0.00 0.00 0.01 92 991.9
20260905092025 55 342 2.0 0.0 0.00 0.00 0.01 93 991.9
20260905091554 55 332 3.0 0.0 0.00 0.00 0.01 93 991.9
20260905091027 55 342 5.0 0.0 0.00 0.00 0.01 92 991.8
20260905090535 55 353 5.0 0.0 0.00 0.00 0.01 93 991.8
20260905090053 55 24 5.0 0.0 0.00 0.00 0.01 95 991.8
20260905085534 55 342 4.0 0.0 0.00 0.00 0.01 95 991.7
20260905085021 55 328 3.0 0.0 0.00 0.00 0.01 96 991.7
20260905084538 55 27 3.0 0.0 0.00 0.00 0.01 97 991.7
20260905084025 54 342 3.0 0.0 0.00 0.00 0.01 97 991.6
20260905083555 54 343 3.0 0.0 0.00 0.00 0.01 97 991.6
20260905083031 54 37 4.0 0.0 0.00 0.00 0.01 97 991.6
20260905082536 55 7 3.0 0.0 0.00 0.00 0.00 97 991.4
20260905082040 55 350 1.0 0.0 0.00 0.00 0.00 97 991.4
20260905081601 55 338 2.0 0.0 0.00 0.00 0.00 98 991.4
20260905081028 55 331 2.0 0.0 0.00 0.00 0.00 99 991.3
20260905080536 55 30 1.0 0.0 0.00 0.00 0.00 100 991.3
20260905080038 55 31 1.0 0.0 0.00 0.00 0.00 100 991.3
20260905075543 55 349 1.0 0.0 0.00 0.00 0.00 100 991.3
20260905075022 54 359 1.0 0.0 0.00 0.00 0.00 100 991.3
20260905074530 54 342 0.0 0.0 0.00 0.00 0.00 100 991.3
20260905074030 54 359 0.0 0.0 0.00 0.00 0.00 100 991.3
20260905073540 53 336 0.0 0.0 0.00 0.00 0.00 100 991.3
20260905073021 53 321 0.0 0.0 0.00 0.00 0.00 100 991.3
20260905072522 53 329 1.0 0.0 0.00 0.00 0.00 100 991.2
20260905072035 53 341 1.0 0.0 0.00 0.00 0.00 100 991.2
20260905071540 53 345 0.0 0.0 0.00 0.00 0.00 100 991.2
20260905071022 53 293 0.0 0.0 0.00 0.00 0.00 100 991.1
20260905070537 53 341 0.0 0.0 0.00 0.00 0.00 100 991.1
20260905070029 53 342 0.0 0.0 0.00 0.00 0.00 100 991.1
20260905065533 53 247 0.0 0.0 0.00 0.00 0.00 100 991.0
20260905065047 53 324 0.0 0.0 0.00 0.00 0.00 100 991.0
20260905064532 52 341 0.0 0.0 0.00 0.00 0.00 100 991.0
20260905064034 52 325 0.0 0.0 0.00 0.00 0.00 100 990.9
20260905063522 51 300 0.0 0.0 0.00 0.00 0.00 100 990.9
20260905063030 51 329 0.0 0.0 0.00 0.00 0.00 100 990.9
20260905062544 51 317 0.0 0.0 0.00 0.00 0.00 100 990.8
20260905062029 50 318 0.0 0.0 0.00 0.00 0.00 100 990.8
20260905061548 50 339 0.0 0.0 0.00 0.00 0.00 100 990.8
20260905061056 50 342 0.0 0.0 0.00 0.00 0.00 100 990.8
20260905060522 50 326 0.0 0.0 0.00 0.00 0.00 100 990.8
20260905060038 50 280 0.0 0.0 0.00 0.00 0.00 100 990.8
20260905055539 50 342 0.0 0.0 0.00 0.00 0.00 100 990.8
20260905055042 49 315 0.0 0.0 0.00 0.00 0.00 100 990.8
20260905054558 49 290 0.0 0.0 0.00 0.00 0.00 100 990.8
20260905054025 49 335 0.0 0.0 0.00 0.00 0.00 100 990.8
20260905053602 49 335 0.0 0.0 0.00 0.00 0.00 100 990.8
20260905053051 49 297 0.0 0.0 0.00 0.00 0.00 100 990.8
20260905052607 49 338 0.0 0.0 0.00 0.00 0.00 100 990.9
20260905052050 49 339 0.0 0.0 0.00 0.00 0.00 100 990.9
20260905051544 49 319 0.0 0.0 0.00 0.00 0.00 100 990.9
20260905051025 49 332 0.0 0.0 0.00 0.00 0.00 100 990.8
20260905050531 48 339 0.0 0.0 0.00 0.00 0.00 100 990.8
20260905050043 48 334 0.0 0.0 0.00 0.00 0.00 100 990.8
20260905045525 48 312 0.0 0.0 0.00 0.00 0.00 100 990.8
20260905045034 48 314 0.0 0.0 0.00 0.00 0.00 100 990.8
20260905044521 47 314 0.0 0.0 0.00 0.00 0.00 100 990.8
20260905044029 47 314 0.0 0.0 0.00 0.00 0.00 100 990.9
20260905043526 47 318 0.0 0.0 0.00 0.00 0.00 100 990.9
20260905043029 47 319 0.0 0.0 0.00 0.00 0.00 100 990.9
20260905042535 47 319 0.0 0.0 0.00 0.00 0.00 100 990.9
20260905042024 46 319 0.0 0.0 0.00 0.00 0.00 100 990.9
20260905041538 46 191 0.0 0.0 0.00 0.00 0.00 100 990.9
20260905041024 46 191 0.0 0.0 0.00 0.00 0.00 100 990.8
20260905040532 46 191 0.0 0.0 0.00 0.00 0.00 100 990.8
20260905040043 46 191 0.0 0.0 0.00 0.00 0.00 100 990.8
20260905035525 46 191 0.0 0.0 0.00 0.00 0.00 100 990.8
20260905035029 45 191 0.0 0.0 0.00 0.00 0.00 100 990.8